Meteo pe oră la Bolshie Orly

Astăzi, 6 Mai, Joi

Timp Temperatura Precipitaţii Vânt Presiune Umiditate
00:00 +10°C° 0.1 mm 3 m/s 738 mmHg 86%
01:00 +10°C° 0.1 mm 4 m/s 738 mmHg 89%
02:00 +8°C° 0 mm 4 m/s 738 mmHg 92%
03:00 +8°C° 0.7 mm 4 m/s 739 mmHg 91%
04:00 +7°C° 0.7 mm 5 m/s 739 mmHg 90%
05:00 +6°C° 0.7 mm 5 m/s 740 mmHg 90%
06:00 +6°C° 0.5 mm 5 m/s 740 mmHg 88%
07:00 +6°C° 0.5 mm 5 m/s 741 mmHg 85%
08:00 +6°C° 0 mm 5 m/s 742 mmHg 84%
09:00 +7°C° 0.2 mm 6 m/s 742 mmHg 79%
10:00 +8°C° 0.2 mm 7 m/s 743 mmHg 74%
11:00 +9°C° 0.2 mm 8 m/s 743 mmHg 69%
12:00 +10°C° 0 mm 8 m/s 744 mmHg 60%
13:00 +11°C° 0 mm 8 m/s 744 mmHg 51%
14:00 +12°C° 0 mm 7 m/s 744 mmHg 41%
15:00 +11°C° 0 mm 7 m/s 745 mmHg 43%
16:00 +11°C° 0 mm 6 m/s 745 mmHg 45%
17:00 +12°C° 0 mm 5 m/s 745 mmHg 47%
18:00 +11°C° 0 mm 4 m/s 745 mmHg 52%
19:00 +9°C° 0 mm 3 m/s 745 mmHg 57%
20:00 +7°C° 0 mm 2 m/s 745 mmHg 63%
21:00 +7°C° 0 mm 3 m/s 745 mmHg 67%
22:00 +7°C° 0 mm 3 m/s 745 mmHg 70%
23:00 +5°C° 0 mm 4 m/s 745 mmHg 74%

Mâine, 7 Mai, Vineri

Timp Temperatura Precipitaţii Vânt Presiune Umiditate
00:00 +5°C° 0 mm 4 m/s 745 mmHg 78%
01:00 +5°C° 0 mm 4 m/s 745 mmHg 83%
02:00 +5°C° 0 mm 3 m/s 745 mmHg 87%
03:00 +4°C° 0 mm 3 m/s 745 mmHg 88%
04:00 +4°C° 0 mm 3 m/s 745 mmHg 90%
05:00 +4°C° 0 mm 3 m/s 745 mmHg 91%
06:00 +5°C° 0 mm 3 m/s 745 mmHg 84%
07:00 +7°C° 0 mm 4 m/s 745 mmHg 77%
08:00 +9°C° 0 mm 5 m/s 744 mmHg 70%
09:00 +10°C° 0 mm 5 m/s 744 mmHg 66%
10:00 +12°C° 0 mm 5 m/s 743 mmHg 63%
11:00 +13°C° 0 mm 5 m/s 743 mmHg 59%
12:00 +12°C° 0.4 mm 4 m/s 742 mmHg 69%
13:00 +11°C° 0.4 mm 3 m/s 742 mmHg 79%
14:00 +10°C° 0.4 mm 3 m/s 741 mmHg 90%
15:00 +10°C° 0.1 mm 3 m/s 741 mmHg 85%
16:00 +11°C° 0.1 mm 3 m/s 741 mmHg 81%
17:00 +12°C° 0.1 mm 4 m/s 740 mmHg 77%
18:00 +11°C° 0.2 mm 3 m/s 740 mmHg 82%
19:00 +10°C° 0.2 mm 3 m/s 740 mmHg 87%
20:00 +9°C° 0.2 mm 2 m/s 740 mmHg 92%
21:00 +9°C° 0 mm 3 m/s 741 mmHg 92%
22:00 +8°C° 0 mm 4 m/s 741 mmHg 91%
23:00 +7°C° 0 mm 5 m/s 741 mmHg 90%

Poimâine, 8 Mai, Sâmbătă

Timp Temperatura Precipitaţii Vânt Presiune Umiditate
00:00 +6°C° 0 mm 5 m/s 741 mmHg 90%
01:00 +4°C° 0 mm 6 m/s 741 mmHg 90%
02:00 +4°C° 0 mm 6 m/s 742 mmHg 89%
03:00 +3°C° 0.2 mm 7 m/s 742 mmHg 91%
04:00 +2°C° 0.2 mm 7 m/s 743 mmHg 93%
05:00 +1°C° 0.2 mm 8 m/s 743 mmHg 96%
06:00 +2°C° 0.2 mm 7 m/s 744 mmHg 93%
07:00 +2°C° 0.2 mm 7 m/s 745 mmHg 90%
08:00 +3°C° 0.2 mm 7 m/s 746 mmHg 87%
09:00 +3°C° 0 mm 7 m/s 746 mmHg 83%
10:00 +3°C° 0 mm 7 m/s 747 mmHg 79%
11:00 +3°C° 0 mm 7 m/s 748 mmHg 76%
12:00 +5°C° 0 mm 7 m/s 748 mmHg 67%
13:00 +6°C° 0 mm 7 m/s 748 mmHg 59%
14:00 +9°C° 0 mm 7 m/s 749 mmHg 51%
15:00 +9°C° 0.1 mm 7 m/s 749 mmHg 54%
16:00 +9°C° 0.1 mm 6 m/s 749 mmHg 57%
17:00 +8°C° 0.1 mm 6 m/s 750 mmHg 61%
18:00 +7°C° 0 mm 5 m/s 750 mmHg 66%
19:00 +6°C° 0 mm 4 m/s 750 mmHg 71%
20:00 +5°C° 0 mm 4 m/s 751 mmHg 77%
21:00 +4°C° 0 mm 4 m/s 751 mmHg 81%
22:00 +4°C° 0 mm 4 m/s 751 mmHg 85%
23:00 +3°C° 0 mm 4 m/s 752 mmHg 89%

9 Mai, Duminică

Timp Temperatura Precipitaţii Vânt Presiune Umiditate
00:00 +3°C° 0 mm 3 m/s 752 mmHg 91%
01:00 +2°C° 0 mm 3 m/s 752 mmHg 93%
02:00 +2°C° 0 mm 3 m/s 753 mmHg 95%
03:00 +2°C° 0 mm 2 m/s 753 mmHg 95%
04:00 +2°C° 0 mm 2 m/s 754 mmHg 95%
05:00 +2°C° 0 mm 2 m/s 754 mmHg 95%
06:00 +4°C° 0 mm 2 m/s 755 mmHg 88%
07:00 +6°C° 0 mm 2 m/s 755 mmHg 80%
08:00 +8°C° 0 mm 2 m/s 756 mmHg 72%
09:00 +9°C° 0 mm 2 m/s 756 mmHg 66%
10:00 +10°C° 0 mm 2 m/s 756 mmHg 60%
11:00 +13°C° 0 mm 2 m/s 756 mmHg 53%
12:00 +14°C° 0 mm 2 m/s 756 mmHg 49%
13:00 +14°C° 0 mm 2 m/s 756 mmHg 46%
14:00 +15°C° 0 mm 2 m/s 755 mmHg 42%
15:00 +15°C° 0 mm 2 m/s 755 mmHg 42%
16:00 +15°C° 0 mm 2 m/s 755 mmHg 42%
17:00 +15°C° 0 mm 2 m/s 755 mmHg 43%
18:00 +14°C° 0 mm 2 m/s 755 mmHg 49%
19:00 +12°C° 0 mm 2 m/s 756 mmHg 56%
20:00 +9°C° 0 mm 2 m/s 756 mmHg 62%
21:00 +8°C° 0 mm 2 m/s 756 mmHg 64%
22:00 +8°C° 0 mm 3 m/s 756 mmHg 66%
23:00 +7°C° 0 mm 3 m/s 756 mmHg 68%

10 Mai, Luni

Timp Temperatura Precipitaţii Vânt Presiune Umiditate
00:00 +7°C° 0 mm 3 m/s 757 mmHg 70%
01:00 +5°C° 0 mm 3 m/s 757 mmHg 72%
02:00 +5°C° 0 mm 3 m/s 757 mmHg 73%
03:00 +5°C° 0 mm 3 m/s 757 mmHg 74%
04:00 +5°C° 0 mm 3 m/s 757 mmHg 75%
05:00 +4°C° 0 mm 3 m/s 757 mmHg 76%
06:00 +8°C° 0 mm 3 m/s 757 mmHg 70%
07:00 +10°C° 0 mm 4 m/s 758 mmHg 64%
08:00 +12°C° 0 mm 4 m/s 758 mmHg 58%
09:00 +14°C° 0 mm 5 m/s 758 mmHg 53%
10:00 +15°C° 0 mm 5 m/s 757 mmHg 49%
11:00 +17°C° 0 mm 5 m/s 757 mmHg 44%
12:00 +19°C° 0 mm 5 m/s 757 mmHg 43%
13:00 +19°C° 0 mm 5 m/s 757 mmHg 42%
14:00 +20°C° 0 mm 5 m/s 757 mmHg 41%
15:00 +20°C° 0 mm 5 m/s 756 mmHg 44%
16:00 +19°C° 0 mm 5 m/s 756 mmHg 47%
17:00 +19°C° 0 mm 5 m/s 756 mmHg 50%
18:00 +17°C° 0 mm 4 m/s 756 mmHg 57%
19:00 +14°C° 0 mm 4 m/s 756 mmHg 63%
20:00 +12°C° 0 mm 3 m/s 756 mmHg 70%
21:00 +12°C° 0 mm 4 m/s 756 mmHg 71%
22:00 +11°C° 0 mm 4 m/s 756 mmHg 72%
23:00 +11°C° 0 mm 4 m/s 756 mmHg 73%

11 Mai, Marţi

Timp Temperatura Precipitaţii Vânt Presiune Umiditate
00:00 +10°C° 0 mm 4 m/s 757 mmHg 74%
01:00 +8°C° 0 mm 4 m/s 757 mmHg 75%
02:00 +7°C° 0 mm 4 m/s 757 mmHg 76%
03:00 +7°C° 0 mm 4 m/s 757 mmHg 77%
04:00 +6°C° 0 mm 4 m/s 757 mmHg 77%
05:00 +6°C° 0 mm 4 m/s 757 mmHg 78%
06:00 +8°C° 0 mm 4 m/s 757 mmHg 71%
07:00 +10°C° 0 mm 5 m/s 757 mmHg 65%
08:00 +13°C° 0 mm 5 m/s 757 mmHg 58%
09:00 +14°C° 0 mm 5 m/s 756 mmHg 52%
10:00 +16°C° 0 mm 5 m/s 756 mmHg 46%
11:00 +17°C° 0 mm 5 m/s 756 mmHg 40%
12:00 +19°C° 0 mm 5 m/s 756 mmHg 39%
13:00 +20°C° 0 mm 5 m/s 755 mmHg 38%
14:00 +21°C° 0 mm 5 m/s 755 mmHg 37%
15:00 +21°C° 0 mm 5 m/s 755 mmHg 43%
16:00 +21°C° 0 mm 4 m/s 755 mmHg 48%
17:00 +21°C° 0 mm 4 m/s 754 mmHg 53%
18:00 +19°C° 0 mm 4 m/s 754 mmHg 61%
19:00 +17°C° 0 mm 3 m/s 754 mmHg 68%
20:00 +14°C° 0 mm 3 m/s 754 mmHg 76%
21:00 +13°C° 0 mm 3 m/s 754 mmHg 79%
22:00 +13°C° 0 mm 3 m/s 754 mmHg 82%
23:00 +12°C° 0 mm 3 m/s 754 mmHg 85%
Arată mai mult

Formular de consimțământ

Meteoprog și furnizorii noștri de servicii pot stoca și accesa date personale, precum cookies, identificatori de dispozitiv sau alte tehnologii similare pe dispozitivul dumneavoastră și procesa astfel de date pentru a personaliza conținutul și reclamele, dar și pentru a oferi caracteristici de social media și pentru a analiza traficul.

  • Stocarea și/sau accesarea informațiilor pe dispozitivul dumneavoastră

    Cookies, identificatori de dispozitiv sau alte informații pot fi stocate sau accesate pe dispozitiv în scopurile indicate mai sus.

  • Reclame și conținut personalizat, evaluarea reclamelor și a conținutului, informații despre audiențe și dezvoltarea produselor

    Reclamele și conținutul pot fi personalizate pe baza unui profil. Pot fi adăugate date suplimentare pentru a personaliza mai bine reclamele și conținutul. Performanța reclamelor și conținutului poate fi măsurată. Pot fi obținute informații despre utilizatorii care au văzut reclamele și conținutul. Aceste date pot fi utilizate pentru a dezvolta sau îmbunătăți experiența utilizatorilor, sistemele și software-ul.

Dând clic pe ‘Sunt de acord’, permiteți utilizarea cookie-urilor menționate, a identificatorilor de dispozitiv, balizelor web sau altor tehnologii similare. Setările pot fi modificate din browser-ul dispozitivului dumneavoastră.

În anumite scopuri, interesele legitime pot prima asupra consimțământului. Puteți citi mai multe informații în acest sens în Politica privind Confidențialitatea Datelor și Cookie.